Regional Weather Roundup
Issued by NWS

Home | Current Version | Previous Version | Graphics & Text | Print | Product List | Glossary On
Versions: 1 2 3 4 5 6 7 8 9 10 11 12 13 14 15 16 17 18 19 20 21 22 23 24 25 26 27 28 29 30 31 32 33 34 35 36 37 38 39 40 41 42 43 44 45 46 47 48 49 50
000
ASUS43 KBIS 220120
RWRND

NORTH DAKOTA REGIONAL WEATHER ROUNDUP
NATIONAL WEATHER SERVICE BISMARCK ND
800 PM CDT THU AUG 21 2014

NOTE: "FAIR" INDICATES FEW OR NO CLOUDS BELOW 12,000 FEET WITH NO
SIGNIFICANT WEATHER AND/OR OBSTRUCTIONS TO VISIBILITY.


NDZ001>003-009>011-017-220200-
NORTHWEST NORTH DAKOTA

CITY           SKY/WX    TMP DP  RH WIND       PRES   REMARKS
WILLISTON      MOCLDY    72  57  59 NE10      29.98R
MINOT          PTCLDY    71  62  73 N12       29.94R
MINOT AFB      PTCLDY    72  64  76 N14       29.94R
$$

NDZ018>021-031>035-040>046-220200-
SOUTHWEST NORTH DAKOTA

CITY           SKY/WX    TMP DP  RH WIND       PRES   REMARKS
BISMARCK       CLEAR     76  63  64 N14       29.92R
DICKINSON      PTCLDY    69  60  73 N9        29.96S
GARRISON         N/A     72  63  73 N7        29.93R
HETTINGER ARPT MOCLDY    74  60  61 N7        29.96S
$$

NDZ004>008-012>016-024-026-027-054-220200-
NORTHEAST NORTH DAKOTA

CITY           SKY/WX    TMP DP  RH WIND       PRES   REMARKS
GRAND FORKS    MOCLDY    75  70  84 N3        29.84R
GRND FRKS AFB  MOCLDY    71  71 100 N3        29.86R
DEVILS LAKE    PTCLDY    70  63  78 N10       29.89R
$$

NDZ022-023-025-028>030-036>039-047>053-220200-
SOUTHEAST NORTH DAKOTA

CITY           SKY/WX    TMP DP  RH WIND       PRES   REMARKS
FARGO          CLEAR     77  69  76 CALM      29.83R
JAMESTOWN      CLEAR     75  68  78 N3        29.87R
$$



USA.gov is the U.S. government's official web portal to all federal, state and local government web resources and services.